GFSNGP_sfc_thetae_132.txt.gz
Theta_e
288 288 289 288 289 290 288 288 285 287 287 292 294 294 293 292 294 294 294 293 293 294 294 294 294 295 296 297 299 301 301 299 300 302 310 309 308 310 309 309 311 311 314 316
281 286 288 286 290 290 290 290 290 290 289 294 295 294 293 293 294 291 290 290 291 291 291 291 292 293 293 295 296 297 298 299 299 299 298 300 301 300 301 301 302 301 301 301
279 285 284 276 284 288 290 292 291 287 291 295 293 291 289 289 288 287 287 287 287 288 289 289 290 291 290 292 293 292 294 298 295 295 294 295 294 294 294 296 296 295 296 296
276 283 275 283 289 292 290 291 292 293 294 289 288 289 286 285 283 284 285 285 285 285 286 287 289 289 288 289 288 289 292 295 292 290 289 289 290 292 292 293 292 292 292 293
278 278 279 282 283 286 285 283 283 284 283 283 284 287 283 282 282 282 282 283 284 284 285 285 286 286 285 286 285 286 288 288 289 288 288 290 289 291 292 290 289 289 288 287
278 273 269 279 283 287 290 277 279 280 278 278 281 282 281 279 280 280 281 281 282 282 281 282 283 283 282 283 283 284 286 285 287 288 288 289 290 289 287 286 285 285 285 285
276 272 277 279 283 286 274 276 276 277 276 275 275 276 277 278 277 278 279 280 280 279 278 279 279 279 280 281 281 283 283 284 286 287 288 289 288 286 286 286 285 285 285 285
280 278 273 276 280 280 275 275 274 274 273 272 273 274 275 275 275 275 276 276 276 275 275 276 276 277 277 276 279 279 280 281 284 287 287 287 286 285 285 285 285 285 285 284
280 276 274 273 271 273 273 272 271 271 271 271 271 271 271 271 272 274 274 274 274 273 272 273 273 274 273 273 275 276 276 278 283 286 286 286 286 285 285 285 285 285 285 284
276 276 272 271 271 270 271 270 270 270 269 269 268 269 269 270 271 271 272 271 271 269 269 268 270 270 269 271 273 272 272 276 282 285 285 285 285 285 285 285 285 285 285 284
273 274 273 271 268 268 269 268 267 267 267 267 267 267 268 268 269 269 269 269 268 267 266 266 267 267 267 269 269 269 271 274 280 283 284 282 282 283 283 283 286 285 285 285
271 265 267 266 266 265 265 265 265 264 265 266 266 266 267 266 267 267 266 266 265 264 264 264 264 265 265 267 267 268 270 275 280 281 281 281 282 283 286 287 287 287 287 285
260 261 263 265 264 263 263 263 263 263 264 264 265 265 264 265 266 265 264 263 262 262 264 264 264 264 265 266 266 268 270 275 278 279 280 279 279 279 278 281 286 287 287 287
262 262 261 260 260 261 261 261 262 262 263 263 263 263 263 263 264 262 262 262 263 263 262 262 263 263 264 266 266 269 270 272 274 275 276 278 278 278 278 277 275 276 279 281
259 260 259 260 260 258 258 258 257 259 260 260 261 260 262 261 261 262 262 263 263 262 262 262 263 263 264 265 266 268 269 269 271 272 273 274 274 274 274 272 271 271 272 273
258 256 255 255 256 256 255 255 255 256 257 258 259 260 261 260 260 260 261 262 261 261 261 262 262 264 264 266 265 267 268 269 269 269 269 270 270 270 270 269 268 268 269 269
252 253 252 251 252 252 251 253 255 256 256 254 257 259 257 256 257 259 261 261 262 262 262 262 261 265 264 265 265 266 267 267 267 267 267 267 267 267 267 267 266 266 266 271
251 250 250 250 250 251 251 251 252 252 254 257 256 257 255 257 259 261 262 261 261 261 261 262 263 264 263 264 264 265 265 265 265 265 266 266 265 266 265 265 265 265 265 266
248 249 249 251 250 250 250 250 250 252 253 255 255 256 258 257 259 260 261 261 259 258 259 262 265 264 263 263 264 264 264 264 264 264 264 264 264 264 264 264 264 264 264 264
248 249 249 249 249 250 250 249 249 250 251 254 256 254 254 257 258 258 260 260 259 259 260 261 262 262 262 262 264 262 262 262 262 262 262 262 262 262 262 262 262 262 262 262
250 250 249 249 249 249 249 249 250 250 251 250 252 251 253 255 256 259 259 258 259 260 260 261 261 262 261 261 261 261 261 261 261 260 260 260 260 261 261 261 261 261 261 261
250 249 248 248 248 249 250 250 250 249 249 249 249 249 250 252 255 258 258 257 259 260 260 260 260 262 261 261 260 259 259 259 259 259 259 259 259 259 259 259 259 259 259 259
249 248 249 249 248 250 249 249 249 248 248 247 247 247 249 252 254 255 254 257 258 258 259 259 260 262 261 259 258 258 258 258 258 258 258 258 258 258 257 257 257 258 257 257
249 249 248 248 245 246 248 248 247 248 247 247 248 248 249 251 253 253 253 256 257 258 257 258 259 262 258 257 257 257 257 256 256 256 256 257 256 256 256 256 256 256 256 256
247 246 245 245 246 249 248 248 247 247 248 249 249 249 249 251 251 251 252 253 256 256 255 257 260 259 255 255 255 255 255 255 255 255 254 254 254 254 254 254 255 254 254 254
246 247 247 247 248 248 248 248 248 248 248 248 248 249 249 249 250 252 252 253 252 254 251 253 252 252 252 252 253 253 254 254 254 254 254 253 252 252 253 253 253 253 252 252
245 247 246 246 248 249 248 248 248 248 248 247 248 250 249 249 250 252 252 252 252 252 251 249 250 252 250 250 251 251 252 252 253 253 251 251 251 251 252 252 251 251 252 252

GFSNGP_sfc_thetae_135.txt.gz
Theta_e
287 288 288 288 287 289 287 288 284 287 287 292 294 293 292 293 292 289 288 288 287 287 287 287 287 288 289 289 289 290 290 291 294 297 299 300 301 303 304 306 307 308 308 309
282 286 287 285 288 289 289 289 289 289 289 295 293 294 290 288 287 285 285 285 285 285 285 285 285 286 287 287 286 288 288 289 292 292 293 296 296 296 296 298 300 301 300 301
279 283 283 276 283 288 289 291 291 286 291 294 289 286 283 282 282 282 282 281 282 282 283 283 283 284 284 284 284 286 286 287 289 287 287 289 291 291 293 294 295 295 295 296
280 278 275 282 287 291 290 285 287 287 283 284 285 282 281 280 279 279 279 279 280 281 280 281 281 283 281 282 282 285 284 285 286 285 285 287 288 288 289 293 292 292 293 293
278 274 278 280 283 285 285 282 279 281 280 280 282 282 277 278 278 278 278 279 280 280 279 278 279 279 277 278 280 282 281 282 282 283 284 285 286 288 290 291 290 290 289 288
275 273 269 280 282 285 287 278 277 278 276 275 280 280 277 276 276 276 276 277 277 277 277 276 276 276 275 276 277 277 278 278 279 281 282 284 286 288 289 288 287 286 286 286
276 270 276 280 280 282 275 277 275 275 273 273 274 273 273 275 273 275 275 275 275 274 273 274 274 274 273 273 273 274 275 276 277 278 281 284 286 287 288 287 286 285 285 285
278 275 272 273 277 279 274 273 273 272 271 271 272 272 272 272 272 272 272 273 273 271 271 271 272 271 270 270 272 271 272 272 273 276 279 283 286 286 287 286 285 285 285 284
278 275 272 271 271 272 274 272 270 270 270 270 269 269 269 269 270 270 270 270 270 269 268 269 269 269 267 268 269 269 268 268 270 274 277 283 285 285 286 286 285 285 285 284
273 271 269 269 270 270 270 269 269 268 268 268 267 267 267 268 269 268 268 267 267 266 265 265 266 267 266 267 267 266 265 267 269 272 276 282 285 285 285 286 285 285 285 284
271 270 269 268 268 268 268 267 266 266 266 266 266 266 266 266 266 267 266 266 265 264 263 263 265 264 265 266 265 265 265 267 269 274 278 281 283 283 283 284 285 286 286 286
271 269 268 267 265 266 265 264 264 264 264 265 265 264 265 264 265 265 264 264 263 263 262 263 262 263 264 265 264 264 265 268 269 272 276 280 281 281 285 286 287 287 287 286
263 262 264 263 262 263 262 262 263 263 264 263 264 263 263 263 264 264 263 262 262 262 261 261 262 262 264 264 265 264 266 267 269 272 274 278 279 278 276 279 281 281 283 286
262 263 261 259 259 260 261 261 261 261 261 262 261 261 262 261 261 260 261 260 261 260 260 260 260 261 264 264 265 265 266 267 268 270 271 273 274 275 274 271 271 272 276 278
258 259 260 260 259 257 257 256 256 258 258 258 258 257 258 257 256 257 256 256 257 256 258 259 260 261 264 264 264 265 266 267 267 268 269 270 271 271 270 269 269 270 271 272
257 256 256 255 255 253 252 252 252 253 254 255 255 257 258 255 253 252 253 254 256 257 258 259 260 262 264 263 264 265 266 267 267 267 267 267 267 267 267 267 266 266 269 269
253 251 250 249 250 250 250 249 251 252 252 250 252 254 253 251 251 252 254 253 254 255 258 259 260 264 264 263 264 264 264 265 265 265 265 265 265 265 265 265 265 265 265 270
249 249 249 250 250 249 249 248 248 249 250 252 251 249 250 250 250 253 254 254 255 256 260 260 261 263 263 262 263 263 263 263 264 263 264 264 264 264 263 263 263 263 263 264
247 250 248 249 248 248 248 249 249 250 250 250 249 250 249 250 251 252 252 252 253 255 258 260 264 262 261 262 263 262 262 262 262 262 262 262 262 262 262 262 262 262 262 262
247 246 246 247 247 249 251 250 248 249 250 249 247 249 250 251 251 252 252 252 253 255 258 259 260 261 261 261 262 261 260 260 260 260 260 260 260 260 260 260 260 260 260 260
248 248 249 249 250 249 250 251 250 250 248 246 248 247 247 248 247 248 249 249 251 253 256 258 259 260 260 260 260 259 259 259 259 258 258 258 258 259 259 259 259 259 259 259
247 248 249 249 250 250 250 249 247 246 245 245 244 244 244 247 246 248 248 250 251 254 256 255 257 260 259 259 258 258 257 257 257 257 257 257 257 257 257 257 257 257 257 257
250 250 249 248 248 248 245 245 245 245 246 244 245 246 247 248 248 248 249 250 249 253 252 254 257 260 260 257 256 256 256 255 255 255 255 256 255 255 255 255 255 255 255 255
246 246 246 244 242 244 247 246 244 244 245 246 246 247 247 249 251 248 249 251 252 253 252 253 256 260 256 252 253 253 253 253 254 254 254 254 254 254 254 253 253 254 254 254
246 245 243 244 245 247 244 244 244 245 244 245 247 248 246 248 250 249 249 250 253 253 251 254 259 257 248 246 247 249 249 249 250 250 251 251 251 251 251 252 252 252 252 252
244 246 246 246 247 246 246 245 247 245 245 247 246 246 246 246 248 250 250 251 250 251 249 249 247 247 246 247 246 247 249 249 251 251 251 250 251 251 251 251 251 251 251 251
242 244 243 245 245 247 246 247 246 250 246 245 248 249 247 247 249 252 252 252 251 250 249 248 249 250 249 248 248 249 249 249 251 250 247 247 248 247 249 249 249 250 250 250

GFSNGP_sfc_thetae_138.txt.gz
Theta_e
286 287 286 288 288 290 287 288 284 284 286 289 293 294 292 290 289 287 285 283 283 283 283 283 282 282 284 283 283 284 285 286 287 289 289 288 289 290 292 294 297 300 303 305
283 287 287 286 289 289 289 288 288 288 287 294 295 295 288 286 285 283 282 281 281 282 281 281 280 280 282 280 280 282 283 284 285 286 285 286 287 288 289 290 293 294 296 297
282 285 284 280 284 287 288 290 289 285 289 291 291 287 283 281 281 279 278 278 278 279 278 278 278 280 277 277 278 280 281 282 281 283 281 282 285 286 287 289 291 292 293 294
279 282 276 282 286 290 289 288 289 283 283 286 285 280 278 279 278 276 276 276 277 277 276 276 277 276 275 276 277 277 277 278 277 277 277 279 281 284 286 288 289 290 292 293
279 279 279 280 284 285 286 282 279 280 279 280 279 277 274 276 276 275 275 276 275 276 275 275 274 273 274 274 274 274 275 274 274 275 275 276 278 281 284 286 288 289 290 290
278 271 269 279 281 282 286 278 277 279 277 277 279 277 273 273 274 273 274 274 274 273 273 272 271 272 271 272 271 272 271 272 273 273 274 274 275 278 283 286 286 288 288 288
277 271 275 279 278 280 276 278 275 275 274 274 274 272 272 272 271 273 272 272 272 270 269 269 270 270 269 269 269 270 270 270 271 271 272 272 275 278 281 285 286 287 287 287
277 270 274 272 276 279 274 274 273 271 271 271 271 271 270 270 270 270 269 269 269 267 267 268 268 268 267 267 268 268 268 268 268 268 270 272 273 276 281 285 285 286 286 287
278 275 270 270 270 272 274 272 270 270 269 270 269 268 268 268 268 268 268 267 267 266 265 266 266 267 265 266 267 266 265 265 266 268 270 272 273 276 280 284 285 285 286 286
272 269 269 269 269 269 269 268 268 268 267 268 266 267 266 267 267 267 267 266 265 264 263 263 265 265 264 265 266 264 263 265 266 268 269 271 274 278 281 283 284 285 285 285
268 268 268 268 268 268 267 267 266 266 266 266 266 265 265 265 266 266 265 265 264 263 263 262 263 263 263 265 265 263 264 265 267 268 269 271 274 278 282 281 282 282 284 285
272 269 268 268 267 268 266 264 265 265 264 265 265 264 264 264 264 264 263 263 262 262 262 261 261 261 262 263 264 263 264 266 267 267 269 271 273 279 282 282 281 281 281 285
262 263 264 263 263 265 263 263 264 264 264 263 263 263 263 262 263 262 262 261 260 260 260 259 259 259 261 262 263 263 263 265 266 267 268 269 271 271 270 273 277 278 278 280
263 264 261 260 259 261 261 262 261 261 261 262 261 260 260 260 259 258 258 257 258 257 256 256 256 257 262 262 262 262 264 265 265 266 267 267 268 268 268 267 267 270 273 274
258 259 260 259 258 257 256 256 257 257 258 257 257 255 255 253 253 253 253 254 254 251 253 255 256 258 261 261 261 262 263 264 265 266 266 266 267 267 267 266 266 266 269 269
256 256 256 256 255 253 252 251 252 253 253 253 253 254 255 252 250 250 251 251 253 254 255 256 256 259 261 260 261 261 262 265 264 264 264 264 265 264 264 264 264 264 265 266
254 251 250 250 252 251 250 249 251 251 250 249 249 249 248 249 249 250 252 252 250 252 253 253 257 260 260 259 261 261 262 263 263 263 263 263 263 262 263 262 262 262 262 267
249 250 250 252 252 250 248 247 247 248 249 250 248 247 248 249 249 250 251 249 250 251 250 253 257 258 257 258 260 260 261 261 262 261 262 261 261 262 261 261 261 260 261 262
246 250 247 250 248 247 247 247 248 249 249 248 248 249 246 246 247 248 247 247 249 248 254 253 261 257 255 258 261 260 259 260 260 260 260 260 260 260 260 259 259 259 259 259
246 245 245 246 245 247 250 249 248 247 247 247 246 246 247 246 244 245 245 248 248 250 250 251 252 253 252 254 259 258 258 258 258 258 258 258 258 258 258 258 258 258 258 258
246 245 247 248 249 248 248 248 249 250 248 244 246 246 246 246 243 242 246 247 249 247 250 252 251 255 251 254 254 254 255 256 256 256 256 256 256 256 256 256 256 256 256 256
246 247 248 248 248 249 249 247 246 244 244 243 242 241 242 246 244 245 245 248 248 250 249 248 250 255 252 255 251 251 252 251 252 254 254 254 254 254 254 254 254 254 255 255
247 248 249 248 248 249 244 243 244 243 245 245 245 245 246 248 246 247 248 248 246 249 249 249 252 258 257 250 248 249 248 248 250 251 251 251 252 252 252 252 252 253 252 253
245 244 246 243 242 244 247 247 242 245 243 243 245 246 246 248 249 247 248 249 250 250 249 250 254 259 253 246 245 246 246 246 247 247 247 251 248 249 249 250 250 251 251 251
245 245 243 243 245 249 244 243 242 243 243 244 246 248 247 248 251 248 246 249 252 252 250 252 258 256 245 243 243 244 245 246 246 243 245 244 245 245 246 247 248 249 250 250
245 248 248 247 248 246 247 243 248 245 243 247 246 248 245 244 247 249 250 252 252 253 252 252 250 251 251 251 250 250 250 249 248 247 246 246 245 246 246 246 247 248 248 248
242 244 242 243 244 245 245 246 245 250 248 247 249 247 247 245 247 250 251 253 254 254 254 254 254 254 253 252 251 251 249 247 249 248 245 245 245 244 245 246 246 247 248 248

GFSNGP_sfc_thetae_141.txt.gz
Theta_e
287 285 286 286 286 288 287 288 284 285 285 289 288 288 287 287 286 285 283 282 281 281 280 280 279 278 280 278 278 278 280 281 282 281 282 282 282 283 284 287 289 290 292 293
284 286 286 284 287 288 289 289 289 286 285 294 294 292 290 288 285 282 281 279 279 279 278 277 276 277 277 276 276 278 278 278 279 278 277 278 279 279 281 283 287 289 290 291
281 285 285 281 285 288 289 291 290 285 290 291 290 287 283 283 282 279 278 277 277 276 276 275 275 275 273 274 275 275 276 277 275 275 275 275 276 277 278 280 283 286 288 290
280 283 276 285 289 291 289 291 292 285 288 290 286 277 276 277 276 275 275 275 275 274 273 273 273 272 273 273 274 273 274 273 273 273 273 274 274 275 276 277 279 283 287 288
280 279 280 280 283 285 287 286 286 286 281 278 276 276 273 274 274 273 274 273 273 273 272 271 271 271 271 272 272 272 271 270 271 271 271 272 272 273 274 275 278 281 285 286
277 275 275 280 281 282 289 280 279 281 278 276 278 278 273 272 273 272 272 272 271 271 270 269 268 270 270 270 270 269 269 270 270 270 270 270 271 272 273 275 277 280 283 286
281 277 280 281 278 280 279 279 277 277 277 278 275 271 271 272 271 271 271 270 269 268 267 267 268 269 268 268 267 268 268 268 268 269 269 270 271 272 272 273 276 279 283 286
277 277 276 271 277 280 276 274 274 272 273 272 271 270 270 270 270 269 268 268 268 266 266 267 268 267 266 266 266 267 267 266 266 267 269 271 270 271 273 275 277 280 283 285
281 278 270 270 271 272 274 272 271 270 271 271 269 268 268 268 268 268 267 266 266 265 265 265 265 265 264 264 266 265 264 264 266 268 269 270 270 271 272 274 278 281 282 282
273 270 269 268 268 269 270 269 269 269 269 269 267 267 266 267 266 266 266 265 265 264 263 262 263 264 263 264 265 263 262 264 267 267 267 269 271 273 275 278 277 276 275 277
268 268 268 269 269 268 267 267 266 267 267 267 266 265 265 266 265 265 265 264 264 262 262 261 262 261 261 263 263 262 263 265 266 267 267 268 269 272 273 275 277 275 274 276
274 269 269 268 268 268 266 266 266 265 265 266 266 265 265 264 264 263 262 262 261 261 260 259 259 259 260 261 262 261 262 264 265 266 266 267 267 268 273 275 276 277 277 277
264 263 265 265 265 266 264 264 265 265 265 263 263 263 263 263 262 261 260 260 259 258 258 256 256 257 258 260 260 260 261 263 264 265 265 265 265 265 265 268 272 273 275 274
263 264 262 261 261 262 263 263 262 261 262 262 261 260 260 259 258 257 257 256 256 254 253 253 253 254 258 259 258 258 259 262 262 263 264 264 264 264 265 264 263 264 270 271
259 260 261 259 259 258 258 258 258 258 258 257 256 255 254 253 252 252 252 252 251 249 250 252 252 254 258 258 257 257 260 261 261 261 262 263 263 263 264 263 263 263 264 268
257 256 257 257 256 254 254 252 254 253 252 252 252 254 253 251 249 248 248 248 251 252 252 250 252 254 255 255 257 257 258 261 260 260 260 261 261 261 261 261 261 261 261 264
255 254 253 252 254 252 250 249 251 251 250 249 249 248 247 247 247 248 249 247 246 247 248 248 252 254 253 253 253 255 256 256 258 258 259 260 260 259 260 260 259 259 260 262
251 252 252 254 253 251 248 246 247 247 248 248 247 246 247 248 250 248 247 245 247 249 247 249 251 251 252 253 250 253 252 253 253 253 257 258 258 259 259 258 258 258 258 260
249 250 249 252 250 250 248 246 245 246 246 247 247 249 246 245 245 245 243 244 246 245 249 247 258 251 249 252 254 252 252 252 251 252 254 257 257 257 257 257 257 257 257 257
245 245 248 246 244 247 247 245 245 246 246 245 244 245 246 245 242 242 241 247 247 248 245 247 246 248 248 249 254 248 248 249 249 248 249 253 254 254 255 255 255 255 255 255
248 245 247 248 246 244 245 245 246 247 247 243 246 246 246 244 241 240 245 246 248 244 245 248 245 248 247 250 249 245 245 246 247 248 246 248 250 252 253 252 253 253 253 254
244 246 246 245 246 247 246 246 245 244 244 243 241 240 241 246 242 242 246 250 247 248 246 246 247 250 249 252 246 245 245 245 244 245 247 246 245 247 249 250 250 251 252 252
245 245 246 247 248 248 243 243 244 244 245 244 245 244 245 247 246 247 249 247 246 247 248 247 250 256 257 247 245 244 244 244 244 246 245 245 247 247 247 248 249 249 249 250
245 245 246 243 242 244 247 248 244 245 245 242 244 245 246 247 249 249 250 249 249 250 249 249 251 260 253 247 247 248 249 249 249 249 249 249 246 245 245 245 246 247 248 248
245 245 243 244 246 250 246 244 241 241 241 245 246 246 247 248 251 248 245 247 251 253 250 252 258 259 253 251 251 251 251 250 249 248 248 245 243 242 243 243 244 245 246 247
245 249 249 249 250 248 248 243 247 245 243 247 246 248 248 246 248 249 249 250 250 251 251 251 250 250 252 253 252 252 252 252 251 250 248 245 244 244 244 245 245 246 246 246
242 245 242 244 245 245 244 245 244 250 247 247 250 248 246 245 246 249 250 251 251 251 251 251 251 252 250 250 251 252 252 250 250 249 246 244 244 243 244 245 245 245 246 247

GFSNGP_sfc_thetae_144.txt.gz
Theta_e
286 284 285 285 286 287 286 287 283 285 284 289 286 286 285 285 283 282 281 280 279 279 278 276 276 277 275 275 276 276 276 276 277 277 276 276 277 277 278 279 280 282 284 287
284 286 286 283 285 287 288 288 288 286 285 289 290 288 286 286 286 281 279 278 277 277 276 275 275 274 274 273 274 275 274 275 275 275 275 275 275 276 276 277 277 278 280 283
279 283 284 280 285 285 287 289 289 285 289 291 288 288 287 284 283 278 276 276 276 275 274 274 273 273 271 273 274 274 274 273 273 273 273 273 274 274 274 275 276 276 278 282
279 279 273 284 286 290 287 289 291 290 288 291 291 277 275 278 276 275 275 274 274 272 271 271 271 270 271 273 272 272 272 272 272 272 271 272 272 272 272 273 274 275 277 279
277 277 281 282 283 284 285 286 291 291 284 276 276 276 272 273 273 273 273 273 272 270 270 269 268 269 270 271 271 271 270 270 271 270 270 271 271 271 272 273 273 275 277 279
281 276 273 282 284 282 290 283 286 292 279 276 280 281 277 272 273 272 271 271 269 269 269 268 267 269 270 270 269 268 269 269 269 269 269 269 270 271 272 273 275 277 278 281
279 278 277 279 278 280 281 281 278 284 281 279 281 275 271 272 270 271 270 270 268 267 266 266 267 268 268 267 266 267 267 267 267 268 269 270 271 271 272 273 275 276 279 280
281 278 276 273 278 282 278 274 276 275 276 273 270 270 270 270 269 268 267 267 267 266 266 266 267 266 265 265 265 266 266 265 266 267 269 270 270 271 272 275 276 275 274 275
281 282 272 270 271 273 275 274 272 272 272 271 269 268 268 267 267 267 266 266 266 265 264 265 264 265 263 263 265 264 263 263 265 267 268 269 268 269 271 272 273 273 272 272
275 273 270 270 269 270 271 270 270 270 270 270 267 267 266 266 266 266 265 264 264 263 262 262 262 263 262 263 263 261 261 263 266 266 266 267 269 270 270 270 272 272 271 270
272 269 269 270 270 269 268 268 267 268 268 267 267 266 266 266 265 265 264 263 263 262 262 260 261 260 260 261 261 260 262 263 264 265 265 265 267 268 270 271 273 271 271 270
279 271 272 271 269 269 267 266 267 266 266 267 267 266 266 264 264 264 262 262 261 260 259 258 257 257 258 258 259 258 260 262 263 263 264 265 264 264 270 272 273 274 275 273
268 265 266 268 267 267 266 266 266 266 265 264 264 265 264 263 262 261 260 259 258 257 257 255 255 255 255 256 256 256 257 260 261 262 262 262 262 262 261 264 270 271 272 273
264 265 263 262 262 264 264 263 262 262 263 263 262 261 261 259 258 257 256 255 254 252 251 249 250 252 254 255 254 254 254 259 259 259 260 260 260 260 261 260 259 261 266 270
260 261 263 262 261 260 260 260 259 259 258 257 256 255 255 254 252 252 249 249 249 248 248 249 250 252 253 253 253 253 256 257 257 256 255 258 257 259 259 259 259 259 260 263
258 259 261 260 258 257 257 255 256 255 254 253 254 254 253 251 249 248 247 246 251 251 248 247 248 252 251 249 250 250 251 256 255 252 254 255 256 256 257 257 257 257 258 258
258 256 255 253 256 255 254 251 254 254 251 252 251 248 248 248 247 248 247 245 244 246 246 245 248 251 247 247 246 248 249 250 253 250 250 250 249 251 253 253 255 255 256 258
251 253 255 257 256 252 248 248 251 251 251 250 247 247 247 248 250 248 246 243 244 245 246 246 245 248 246 246 246 247 246 246 247 246 247 251 250 249 249 251 253 254 255 256
248 251 250 254 253 252 251 249 250 249 248 248 248 249 247 245 245 244 241 243 244 245 248 243 255 248 245 249 249 246 245 245 245 245 245 248 248 247 247 249 252 253 254 254
246 246 250 248 246 249 249 244 248 248 245 247 246 245 246 244 242 241 239 245 248 249 244 243 243 244 245 245 251 244 243 243 244 244 243 244 244 246 247 249 251 250 250 252
248 245 248 249 247 244 247 248 249 249 247 244 248 248 247 243 239 239 243 245 249 245 243 246 244 246 246 247 246 242 242 243 243 243 242 242 242 244 246 245 248 250 250 250
246 248 248 248 249 247 244 244 245 245 245 243 241 240 241 244 241 241 246 250 247 248 245 245 246 247 249 252 245 244 243 243 243 244 248 247 246 248 249 248 248 249 249 248
246 245 247 247 249 249 242 243 246 246 247 246 246 245 246 247 246 247 250 248 247 247 247 247 249 253 259 247 245 244 244 245 248 250 250 250 250 249 248 248 247 246 246 247
244 244 246 243 241 244 248 247 246 246 245 243 245 246 246 246 247 249 252 249 249 249 248 250 251 258 257 246 245 246 246 246 247 248 250 251 249 248 246 244 244 244 245 245
246 246 243 245 247 251 247 244 242 240 240 243 245 246 246 248 251 248 245 247 251 252 251 252 257 258 249 246 246 247 247 246 245 244 246 247 246 244 242 241 242 243 244 245
245 249 249 249 250 249 248 245 248 245 242 245 246 248 247 247 249 250 249 250 249 251 251 251 250 250 249 249 248 248 249 248 249 247 246 246 244 243 244 244 244 245 245 245
243 246 244 245 246 246 244 245 245 249 247 246 249 246 247 244 246 249 250 250 250 251 251 251 251 252 250 250 250 250 250 249 249 248 245 245 244 243 244 244 244 244 246 246